Regional Weather Roundup
Issued by NWS

Home | Current Version | Previous Version | Graphics & Text | Print | Product List | Glossary On
Versions: 1 2 3 4 5 6 7 8 9 10 11 12 13 14 15 16 17 18 19 20 21 22 23 24 25 26 27 28 29 30 31 32 33 34 35 36 37 38 39 40 41 42 43 44 45 46 47 48 49 50
000
ASUS43 KMKX 311610
RWRWI

WISCONSIN REGIONAL WEATHER ROUNDUP
NATIONAL WEATHER SERVICE MILWAUKEE/SULLIVAN WI
1000 AM CST SAT JAN 31 2015

NOTE: "FAIR" INDICATES FEW OR NO CLOUDS BELOW 12,000 FEET WITH NO
SIGNIFICANT WEATHER AND/OR OBSTRUCTIONS TO VISIBILITY.

WIZ001-002-006>008-014>016-023>028-311700-
NORTHWEST WISCONSIN

CITY           SKY/WX    TMP DP  RH WIND       PRES   REMARKS
SUPERIOR ARPT  CLOUDY    24  14  67 N7        30.26R WCI  15
ASHLAND        CLOUDY    23  16  74 NW9       30.22R WCI  13
HAYWARD        CLOUDY    23  15  71 N7        30.19R WCI  15
SIREN          CLOUDY    24  18  75 N9        30.21R WCI  15
CUMBERLAND     CLOUDY    23  18  80 N3        30.18R
RICE LAKE      CLOUDY    25  19  79 N8        30.20R WCI  16
CHETEK         CLOUDY    24  19  80 N6        30.19R WCI  17
LADYSMITH      CLOUDY    23  17  80 N5        30.18R WCI  16
EAU CLAIRE     CLOUDY    25  18  74 N3        30.18R
MENOMONIE      CLOUDY    27  20  77 N7        30.19S WCI  19
NEW RICHMOND   CLOUDY    27  22  80 NE9       30.19R WCI  18
OSCEOLA        CLOUDY    27  21  79 N10       30.23R WCI  17
$$

WIZ003>005-009-010-017-018-311700-
NORTH CENTRAL WISCONSIN

CITY           SKY/WX    TMP DP  RH WIND       PRES   REMARKS
MANITOWISH WTR CLOUDY    20  17  87 N7G16     30.12R WCI  11
ARBOR VITAE    CLOUDY    22  18  84 NW8       30.12R WCI  12
WOODRUFF       CLOUDY    22  18  84 NW8       30.12R WCI  12
RHINELANDER    CLOUDY    21  16  81 VRB6      30.12R WCI  13
EAGLE RIVER    CLOUDY    21  16  81 NW8       30.11R WCI  11
LAND O LAKES   CLOUDY    21  18  88 NW6       30.11R WCI  14
PHILLIPS       CLOUDY    21  17  83 NW5       30.14R WCI  14
TOMAHAWK       CLOUDY    21  17  82 CALM      30.14R
MEDFORD        CLOUDY    22  17  83 N7        30.13R WCI  13
MERRILL        CLOUDY    23  18  80 N5        30.14R WCI  17
$$

WIZ029-030-035-036-043>047-311700-
CENTRAL WISCONSIN

CITY           SKY/WX    TMP DP  RH WIND       PRES   REMARKS
WAUSAU         CLOUDY    22  15  75 NW8       30.14R WCI  12
MOSINEE        CLOUDY    21  16  79 NW5       30.15R WCI  15
MARSHFIELD     CLOUDY    24  17  74 N7        30.15R WCI  16
STEVENS POINT  CLOUDY    22  14  70 NW5       30.16R WCI  16
WAUPACA        CLOUDY    27  17  66 CALM      30.18R
WAUTOMA        CLOUDY    26  18  72 CALM      30.17S
WISC RAPIDS    CLOUDY    25  15  66 NW5       30.18R WCI  19
CAMP DOUGLAS   CLOUDY    28  23  80 W3        30.17R
$$

WIZ011>013-019>022-031-037>040-048>050-311700-
NORTHEAST WISCONSIN

CITY           SKY/WX    TMP DP  RH WIND       PRES   REMARKS
ANTIGO         CLOUDY    20  16  82 NW6       30.12R WCI  13
SHAWANO        CLOUDY    25  15  64 NW5       30.16S WCI  20
OCONTO         CLOUDY    24  15  68 MISG      30.16S
STURGEON BAY   CLOUDY    23  14  68 W7        30.18R WCI  15
GREEN BAY      CLOUDY    25  17  72 W7        30.17R WCI  17
MANITOWOC      CLOUDY    28  19  69 W7        30.17S WCI  21
APPLETON       CLOUDY    25  18  74 W7        30.16S WCI  17
CLINTONVILLE   CLOUDY    25  14  63 NW3       30.16S
OSHKOSH        CLOUDY    27  17  66 W5        30.16S WCI  22
$$

WIZ032>034-041-042-053>061-311700-
SOUTHWEST WISCONSIN

CITY           SKY/WX    TMP DP  RH WIND       PRES   REMARKS
LA CROSSE      CLOUDY    27  18  69 CALM      30.19R
SPARTA         CLOUDY    28  19  69 W3        30.19R
VIROQUA        CLOUDY    26  20  78 NW3       30.14S
BOSCOBEL       PTSUNNY   25  18  74 CALM      30.20S
PRAIRIE DU CHI PTSUNNY   26  19  76 CALM      30.20R
PLATTEVILLE    PTSUNNY   28  23  80 SW7       30.18R WCI  21
$$

WIZ056-057-062-063-064-067-068-311700-
SOUTH CENTRAL WISCONSIN

CITY           SKY/WX    TMP DP  RH WIND       PRES   REMARKS
REEDSBURG      CLOUDY    27  19  71 W3        30.16F
BARABOO/DELLS  CLOUDY    27  18  69 W6        30.16S WCI  21
LONE ROCK      CLOUDY    24  18  77 CALM      30.19S
MINERAL POINT  MOSUNNY   30  21  69 SW5       30.16S WCI  25
MADISON        CLOUDY    28  18  66 W5        30.17S WCI  23
MIDDLETON      MOSUNNY   31  19  62 W7        30.18S WCI  24
WATERTOWN      SUNNY     28  19  70 W6        30.17S WCI  21
MONROE         PTSUNNY   28  23  80 SW10      30.17R WCI  19
JANESVILLE     SUNNY     28  19  69 SW7       30.18F WCI  21
$$

WIZ051-052-058>065-066-070>072-311700-
SOUTHEAST WISCONSIN

CITY           SKY/WX    TMP DP  RH WIND       PRES   REMARKS
MILWAUKEE      PTSUNNY   31  18  58 W8G17     30.18S WCI  23
WAUKESHA       SUNNY     27  18  69 W9        30.18S WCI  17
MILWAUKEE/TIMM SUNNY     30  18  59 W10       30.18F WCI  21
RACINE         SUNNY     32  19  58 W12       30.19F WCI  23
BURLINGTON     SUNNY     28  19  69 W9        30.18F WCI  19
KENOSHA        SUNNY     32  20  61 W15       30.18F WCI  22
FOND DU LAC    CLOUDY    26  17  68 SW6       30.16S WCI  19
SHEBOYGAN      CLOUDY    28  18  66 W12       30.16S WCI  18
WEST BEND      SUNNY     30  18  59 W10       30.16S WCI  21
JUNEAU         CLOUDY    26  19  74 SW8       30.18S WCI  17
$$

LSZ147-162-311700-
LAKE SUPERIOR

STATION/POSITION TIME  TEMP    WIND        PRES    WAVE
                       AIR SEA DIR/SP/G            HT/PER
                 (UTC) (F)     (DEG/KT/KT) (MB)    (FT/S)
DEVILS ISLAND    1600   18     340/ 17/ 20 1025.4R
PORT WING        1500   23     330/ 12/ 16 1023.7
SAXON HARBOR     1500   25     330/ 13/ 16 1022.4R
$$

LMZ867-665-643>646-311700-
LAKE MICHIGAN

STATION/POSITION TIME  TEMP    WIND        PRES    WAVE
                       AIR SEA DIR/SP/G            HT/PER
                 (UTC) (F)     (DEG/KT/KT) (MB)    (FT/S)
NORTHPORT PIER   1520   22     290/  4/  9 1021.0S
SISTER BAY       1543   24     300/  7/  8   N/A
KEWAUNEE LAKESHO 1500   25     280/  8/ 11 1020.4S
SHEBOYGAN LAKESH 1600   28     280/  8/  9 1022.6S
PORT WASHINGTON  1540   30     290/  7/ 13 1022.4S
MILWAUKEE LAKESH 1500   29     260/ 10/ 13   N/A
KENOSHA   LAKESH 1600   32     260/ 12/ 17 1022.4F
$$

TC  - TEMPERATURE IN CELSIUS
VSB - VISIBILITY IN STATUTE MILES
WCI - WIND CHILL INDEX
HX  - HEAT INDEX




USA.gov is the U.S. government's official web portal to all federal, state and local government web resources and services.